| time (UTC) | temp C | wind direction | speed KPH | gust KPH | rain 1hr cm | rain 24hr cm | rain mn cm | humidity % | barometer mb |
| 20260503180106 | 17 | 0 | 14.5 | 33.8 | 0.00 | 0.00 | 0.00 | 51 | 1004.6 |
| 20260503170105 | 16 | 0 | 19.3 | 32.2 | 0.00 | 0.00 | 0.00 | 55 | 1005.5 |
| 20260503150606 | 13 | 0 | 19.3 | 33.8 | 0.00 | 0.00 | 0.00 | 59 | 1007.1 |
| 20260503150105 | 13 | 0 | 16.1 | 35.4 | 0.00 | 0.00 | 0.00 | 60 | 1007.1 |
| 20260503140106 | 13 | 0 | 16.1 | 37.0 | 0.00 | 0.00 | 0.00 | 58 | 1007.3 |
| 20260503130105 | 11 | 0 | 6.4 | 19.3 | 0.00 | 0.00 | 0.00 | 60 | 1007.9 |
| 20260503120105 | 10 | 0 | 3.2 | 16.1 | 0.00 | 0.00 | 0.00 | 63 | 1007.9 |
| 20260503110105 | 10 | 0 | 1.6 | 12.9 | 0.00 | 0.00 | 0.00 | 63 | 1008.1 |
| 20260503090106 | 10 | 0 | 1.6 | 14.5 | 0.00 | 0.00 | 0.00 | 59 | 1009.4 |
| 20260503080605 | 10 | 0 | 4.8 | 9.7 | 0.00 | 0.00 | 0.00 | 59 | 1009.8 |
| 20260503080105 | 10 | 0 | 1.6 | 9.7 | 0.00 | 0.00 | 0.00 | 61 | 1009.8 |
| 20260503070605 | 10 | 0 | 1.6 | 4.8 | 0.00 | 0.00 | 0.00 | 65 | 1010.0 |
| 20260503070105 | 10 | 0 | 3.2 | 8.0 | 0.00 | 0.00 | 0.00 | 64 | 1010.1 |
| 20260503060105 | 9 | 0 | 0.0 | 4.8 | 0.00 | 0.00 | 0.00 | 66 | 1010.9 |
| 20260503050605 | 9 | 0 | 0.0 | 1.6 | 0.00 | 0.00 | 0.00 | 67 | 1011.4 |
| 20260503050106 | 9 | 0 | 0.0 | 4.8 | 0.00 | 0.00 | 0.00 | 68 | 1011.4 |
| 20260503040606 | 8 | 0 | 0.0 | 1.6 | 0.00 | 0.00 | 0.00 | 67 | 1011.8 |
| 20260503020105 | 11 | 0 | 0.0 | 3.2 | 0.00 | 0.00 | 0.00 | 49 | 1012.5 |
| 20260503010107 | 13 | 0 | 4.8 | 14.5 | 0.00 | 0.00 | 0.00 | 46 | 1012.3 |
| 20260503000604 | 14 | 0 | 9.7 | 12.9 | 0.00 | 0.00 | 0.00 | 40 | 1012.4 |
| 20260503000105 | 14 | 0 | 4.8 | 25.7 | 0.00 | 0.00 | 0.00 | 40 | 1012.5 |
| 20260502230604 | 15 | 0 | 4.8 | 14.5 | 0.00 | 0.00 | 0.00 | 41 | 1012.7 |
| 20260502230105 | 15 | 0 | 0.0 | 8.0 | 0.00 | 0.00 | 0.00 | 41 | 1012.8 |
| 20260502220604 | 13 | 0 | 1.6 | 4.8 | 0.00 | 0.00 | 0.00 | 41 | 1013.3 |
| 20260502220105 | 13 | 0 | 3.2 | 14.5 | 0.00 | 0.00 | 0.00 | 45 | 1013.4 |
| 20260502210105 | 13 | 0 | 11.3 | 14.5 | 0.00 | 0.00 | 0.00 | 42 | 1014.0 |
| 20260502200605 | 13 | 0 | 3.2 | 4.8 | 0.00 | 0.00 | 0.00 | 44 | 1015.0 |
| 20260502200105 | 13 | 0 | 3.2 | 12.9 | 0.00 | 0.00 | 0.00 | 44 | 1015.1 |
| 20260502190104 | 12 | 0 | 3.2 | 19.3 | 0.00 | 0.00 | 0.00 | 44 | 1016.0 |